�������l�o���
Date,Time,MP-1(��Sv/h),MP-2(��Sv/h),MP-3(��Sv/h),MP-4(��Sv/h),MP-5(��Sv/h),MP-6(��Sv/h),MP-7(��Sv/h),MP-8(��Sv/h),����,����(m/s),���J
2021/08/12,00:00,0.575,0.850,0.550,1.030,0.735,0.354,0.614,0.578,�k�k��,5.2,�L
2021/08/12,00:10,0.575,0.851,0.551,1.033,0.735,0.354,0.613,0.577,�k,6.0,�L
2021/08/12,00:20,0.574,0.854,0.552,1.033,0.735,0.354,0.613,0.578,�k,5.4,�L
2021/08/12,00:30,0.575,0.849,0.549,1.033,0.735,0.354,0.614,0.577,�k�k��,4.9,�L
2021/08/12,00:40,0.574,0.850,0.549,1.033,0.736,0.354,0.612,0.576,�k�k��,5.3,�L
2021/08/12,00:50,0.573,0.848,0.548,1.033,0.733,0.352,0.613,0.578,�k�k��,6.0,�L
2021/08/12,01:00,0.574,0.848,0.549,1.034,0.734,0.354,0.613,0.575,�k�k��,5.8,�L
2021/08/12,01:10,0.574,0.848,0.548,1.030,0.733,0.353,0.612,0.577,�k�k��,6.1,�L
2021/08/12,01:20,0.573,0.849,0.548,1.031,0.733,0.355,0.613,0.576,�k,5.5,�L
2021/08/12,01:30,0.573,0.847,0.550,1.027,0.732,0.353,0.614,0.576,�k�k��,5.9,�L
2021/08/12,01:40,0.571,0.846,0.548,1.026,0.729,0.355,0.610,0.576,�k�k��,4.6,�L
2021/08/12,01:50,0.574,0.846,0.549,1.029,0.731,0.354,0.612,0.576,�k�k��,5.5,�L
2021/08/12,02:00,0.574,0.846,0.550,1.026,0.733,0.356,0.612,0.577,�k�k��,6.2,�L
2021/08/12,02:10,0.571,0.842,0.549,1.029,0.731,0.354,0.610,0.577,�k�k��,7.0,�L
2021/08/12,02:20,0.568,0.840,0.547,1.027,0.730,0.354,0.612,0.575,�k�k��,6.1,�L
2021/08/12,02:30,0.569,0.843,0.549,1.025,0.730,0.354,0.611,0.574,�k�k��,6.8,�L
2021/08/12,02:40,0.573,0.843,0.550,1.027,0.732,0.354,0.612,0.576,�k��,7.0,�L
2021/08/12,02:50,0.573,0.845,0.549,1.027,0.730,0.355,0.611,0.574,�k�k��,7.0,�L
2021/08/12,03:00,0.573,0.843,0.549,1.026,0.725,0.354,0.610,0.575,�k�k��,7.3,�L
2021/08/12,03:10,0.571,0.842,0.550,1.024,0.727,0.356,0.612,0.574,�k�k��,7.1,�L
2021/08/12,03:20,0.574,0.843,0.551,1.024,0.727,0.356,0.612,0.575,�k�k��,6.6,�L
2021/08/12,03:30,0.574,0.848,0.550,1.028,0.729,0.356,0.610,0.575,�k�k��,6.1,�L
2021/08/12,03:40,0.576,0.847,0.550,1.031,0.730,0.355,0.610,0.576,�k�k��,6.5,�L
2021/08/12,03:50,0.574,0.850,0.552,1.032,0.730,0.355,0.612,0.574,�k�k��,6.7,�L
2021/08/12,04:00,0.573,0.851,0.550,1.032,0.731,0.355,0.613,0.576,�k�k��,7.1,�L
2021/08/12,04:10,0.577,0.849,0.550,1.033,0.731,0.354,0.611,0.577,�k�k��,6.9,�L
2021/08/12,04:20,0.573,0.848,0.548,1.032,0.731,0.355,0.612,0.576,�k��,6.6,�L
2021/08/12,04:30,0.575,0.848,0.547,1.032,0.730,0.353,0.611,0.575,�k��,7.3,�L
2021/08/12,04:40,0.574,0.849,0.550,1.034,0.730,0.354,0.611,0.575,�k��,7.3,�L
2021/08/12,04:50,0.574,0.848,0.546,1.035,0.730,0.354,0.611,0.574,�k��,8.4,�L
2021/08/12,05:00,0.573,0.846,0.549,1.034,0.730,0.352,0.611,0.576,�k��,7.2,�L
2021/08/12,05:10,0.574,0.848,0.548,1.034,0.729,0.354,0.612,0.576,�k��,8.0,�L
2021/08/12,05:20,0.573,0.849,0.549,1.036,0.730,0.353,0.611,0.575,�k�k��,7.9,�L
2021/08/12,05:30,0.575,0.848,0.547,1.035,0.730,0.353,0.611,0.576,�k�k��,6.6,�L
2021/08/12,05:40,0.573,0.848,0.549,1.037,0.729,0.353,0.611,0.575,�k�k��,7.2,�L
2021/08/12,05:50,0.575,0.850,0.548,1.036,0.731,0.352,0.612,0.575,�k�k��,7.5,��
2021/08/12,06:00,0.573,0.850,0.550,1.038,0.732,0.353,0.612,0.577,�k��,6.8,��
2021/08/12,06:10,0.576,0.850,0.550,1.037,0.732,0.354,0.611,0.576,�k�k��,6.4,��
2021/08/12,06:20,0.575,0.851,0.549,1.038,0.734,0.354,0.612,0.575,�k�k��,6.1,�L
2021/08/12,06:30,0.574,0.853,0.549,1.039,0.733,0.355,0.611,0.575,�k�k��,8.5,�L
2021/08/12,06:40,0.577,0.850,0.550,1.038,0.733,0.354,0.613,0.575,�k�k��,8.5,�L
2021/08/12,06:50,0.574,0.850,0.550,1.041,0.734,0.355,0.613,0.575,�k�k��,9.1,�L
2021/08/12,07:00,0.576,0.852,0.549,1.039,0.734,0.353,0.612,0.576,�k��,7.5,�L
2021/08/12,07:10,0.577,0.850,0.549,1.041,0.735,0.354,0.613,0.575,�k�k��,7.3,��
2021/08/12,07:20,0.576,0.851,0.550,1.040,0.734,0.354,0.613,0.577,�k�k��,7.9,�L
2021/08/12,07:30,0.575,0.850,0.549,1.042,0.736,0.354,0.612,0.576,�k�k��,7.9,��
2021/08/12,07:40,0.576,0.852,0.550,1.040,0.735,0.354,0.612,0.576,�k�k��,7.5,��
2021/08/12,07:50,0.576,0.853,0.549,1.042,0.736,0.354,0.613,0.577,�k�k��,6.3,��
2021/08/12,08:00,0.576,0.854,0.549,1.042,0.735,0.354,0.612,0.577,�k�k��,7.6,�L
2021/08/12,08:10,0.576,0.854,0.549,1.040,0.735,0.355,0.614,0.577,�k�k��,8.7,��
2021/08/12,08:20,0.577,0.853,0.550,1.043,0.738,0.354,0.613,0.577,�k�k��,7.9,�L
2021/08/12,08:30,0.577,0.854,0.550,1.041,0.735,0.355,0.614,0.578,�k�k��,7.8,�L
2021/08/12,08:40,0.576,0.853,0.550,1.042,0.739,0.354,0.613,0.577,�k�k��,7.3,�L
2021/08/12,08:50,0.578,0.854,0.551,1.044,0.737,0.354,0.614,0.578,�k�k��,8.1,�L
2021/08/12,09:00,0.576,0.854,0.552,1.043,0.734,0.355,0.613,0.578,�k�k��,8.2,�L
2021/08/12,09:10,0.579,0.853,0.551,1.044,0.738,0.353,0.614,0.577,�k�k��,7.6,�L
2021/08/12,09:20,0.576,0.855,0.550,1.042,0.738,0.354,0.613,0.578,�k�k��,8.0,�L
2021/08/12,09:30,0.576,0.854,0.551,1.043,0.737,0.355,0.614,0.578,�k�k��,7.7,�L
2021/08/12,09:40,0.577,0.851,0.551,1.045,0.738,0.353,0.613,0.577,�k�k��,6.7,�L
2021/08/12,09:50,0.575,0.851,0.550,1.044,0.737,0.353,0.613,0.578,�k�k��,8.0,�L
2021/08/12,10:00,0.576,0.852,0.549,1.042,0.736,0.356,0.615,0.578,�k,6.8,�L
2021/08/12,10:10,0.577,0.850,0.550,1.042,0.736,0.355,0.614,0.578,�k�k��,7.4,�L
2021/08/12,10:20,0.575,0.852,0.551,1.042,0.735,0.357,0.615,0.577,�k�k��,7.9,��
2021/08/12,10:30,0.577,0.855,0.551,1.043,0.735,0.356,0.616,0.577,�k�k��,7.2,��
2021/08/12,10:40,0.575,0.854,0.551,1.044,0.736,0.356,0.615,0.579,�k�k��,6.0,�L
2021/08/12,10:50,0.576,0.854,0.552,1.043,0.739,0.356,0.616,0.579,�k�k��,6.6,��
2021/08/12,11:00,0.577,0.853,0.552,1.044,0.737,0.356,0.617,0.579,�k�k��,5.7,��
2021/08/12,11:10,0.576,0.855,0.550,1.046,0.738,0.353,0.615,0.580,�k�k��,6.1,��
2021/08/12,11:20,0.577,0.855,0.552,1.046,0.739,0.356,0.616,0.577,�k�k��,8.8,��
2021/08/12,11:30,0.577,0.855,0.552,1.047,0.738,0.356,0.615,0.580,�k�k��,8.5,�L
2021/08/12,11:40,0.577,0.856,0.553,1.047,0.739,0.357,0.617,0.581,�k�k��,8.8,�L
2021/08/12,11:50,0.580,0.858,0.551,1.046,0.740,0.357,0.617,0.579,�k�k��,8.1,�L
2021/08/12,12:00,0.579,0.857,0.553,1.045,0.741,0.355,0.617,0.578,�k�k��,6.1,�L
2021/08/12,12:10,0.581,0.857,0.553,1.045,0.742,0.357,0.617,0.580,�k�k��,8.2,�L
2021/08/12,12:20,0.580,0.856,0.554,1.044,0.741,0.356,0.617,0.579,�k�k��,8.9,�L
2021/08/12,12:30,0.578,0.858,0.553,1.044,0.742,0.357,0.616,0.580,�k�k��,7.5,�L
2021/08/12,12:40,0.578,0.855,0.554,1.045,0.740,0.357,0.617,0.580,�k�k��,8.2,�L
2021/08/12,12:50,0.578,0.857,0.553,1.045,0.739,0.358,0.618,0.579,�k�k��,7.9,�L
2021/08/12,13:00,0.578,0.857,0.553,1.045,0.741,0.356,0.616,0.579,�k�k��,9.4,�L
2021/08/12,13:10,0.578,0.856,0.551,1.046,0.740,0.357,0.617,0.580,�k�k��,8.2,�L
2021/08/12,13:20,0.578,0.856,0.554,1.047,0.740,0.357,0.615,0.580,�k�k��,9.1,�L
2021/08/12,13:30,0.578,0.856,0.554,1.048,0.740,0.356,0.616,0.579,�k�k��,7.9,�L
2021/08/12,13:40,0.575,0.858,0.554,1.047,0.742,0.356,0.617,0.579,�k�k��,9.1,�L
2021/08/12,13:50,0.579,0.858,0.553,1.048,0.742,0.357,0.618,0.580,�k�k��,9.0,��
2021/08/12,14:00,0.576,0.856,0.554,1.050,0.740,0.357,0.616,0.580,�k�k��,7.3,��
2021/08/12,14:10,0.580,0.857,0.554,1.051,0.741,0.356,0.618,0.580,�k�k��,8.1,��
2021/08/12,14:20,0.579,0.858,0.555,1.048,0.742,0.356,0.619,0.580,�k�k��,8.8,��
2021/08/12,14:30,0.579,0.860,0.554,1.050,0.742,0.356,0.617,0.580,�k�k��,7.7,��
2021/08/12,14:40,0.579,0.859,0.554,1.051,0.741,0.357,0.618,0.580,�k�k��,6.8,��
2021/08/12,14:50,0.579,0.858,0.554,1.051,0.742,0.357,0.619,0.581,�k�k��,8.9,��
2021/08/12,15:00,0.577,0.860,0.554,1.050,0.743,0.357,0.618,0.580,�k�k��,8.7,�L
2021/08/12,15:10,0.579,0.859,0.554,1.048,0.741,0.356,0.618,0.580,�k�k��,8.5,�L
2021/08/12,15:20,0.578,0.859,0.553,1.053,0.742,0.356,0.619,0.581,�k�k��,8.5,�L
2021/08/12,15:30,0.578,0.860,0.553,1.050,0.742,0.356,0.618,0.581,�k�k��,9.0,�L
2021/08/12,15:40,0.579,0.860,0.554,1.052,0.743,0.359,0.620,0.581,�k�k��,7.7,��
2021/08/12,15:50,0.581,0.860,0.555,1.050,0.743,0.357,0.621,0.581,�k�k��,7.9,��
2021/08/12,16:00,0.579,0.860,0.554,1.053,0.745,0.357,0.618,0.582,�k�k��,6.5,��
2021/08/12,16:10,0.581,0.860,0.555,1.054,0.744,0.357,0.620,0.582,�k�k��,7.2,��
2021/08/12,16:20,0.579,0.862,0.555,1.053,0.744,0.358,0.619,0.582,�k�k��,7.2,��
2021/08/12,16:30,0.579,0.862,0.556,1.053,0.742,0.358,0.619,0.582,�k�k��,5.9,��
2021/08/12,16:40,0.581,0.859,0.553,1.052,0.745,0.357,0.619,0.582,�k�k��,6.4,��
2021/08/12,16:50,0.579,0.863,0.554,1.052,0.743,0.357,0.619,0.582,�k�k��,8.3,��
2021/08/12,17:00,0.581,0.863,0.555,1.051,0.746,0.358,0.619,0.581,�k�k��,7.2,��
2021/08/12,17:10,0.579,0.862,0.553,1.053,0.744,0.357,0.619,0.581,�k�k��,7.5,��
2021/08/12,17:20,0.580,0.863,0.555,1.053,0.745,0.356,0.620,0.580,�k�k��,6.3,��
2021/08/12,17:30,0.580,0.862,0.555,1.052,0.745,0.357,0.620,0.582,�k�k��,7.0,��
2021/08/12,17:40,0.579,0.862,0.555,1.054,0.744,0.357,0.619,0.581,�k�k��,7.0,��
2021/08/12,17:50,0.581,0.862,0.556,1.053,0.746,0.356,0.619,0.582,�k�k��,7.3,��
2021/08/12,18:00,0.580,0.863,0.556,1.053,0.746,0.357,0.619,0.582,�k�k��,8.9,��
2021/08/12,18:10,0.582,0.863,0.556,1.054,0.746,0.356,0.618,0.582,�k�k��,8.1,��
2021/08/12,18:20,0.579,0.862,0.553,1.053,0.746,0.357,0.619,0.583,�k�k��,7.9,��
2021/08/12,18:30,0.582,0.862,0.558,1.054,0.745,0.357,0.619,0.583,�k�k��,8.2,��
2021/08/12,18:40,0.581,0.863,0.556,1.053,0.746,0.356,0.618,0.582,�k�k��,6.9,��
2021/08/12,18:50,0.582,0.862,0.557,1.054,0.746,0.358,0.622,0.584,�k�k��,8.6,��
2021/08/12,19:00,0.581,0.863,0.556,1.054,0.745,0.357,0.619,0.583,�k�k��,7.7,��
2021/08/12,19:10,0.581,0.863,0.555,1.054,0.746,0.356,0.620,0.582,�k�k��,7.6,��
2021/08/12,19:20,0.584,0.865,0.557,1.052,0.746,0.354,0.621,0.582,�k�k��,7.7,��
2021/08/12,19:30,0.581,0.864,0.557,1.055,0.746,0.358,0.620,0.582,�k�k��,8.1,��
2021/08/12,19:40,0.583,0.864,0.556,1.056,0.748,0.358,0.618,0.580,�k�k��,9.0,�L
2021/08/12,19:50,0.581,0.865,0.556,1.057,0.748,0.357,0.621,0.583,�k�k��,7.6,�L
2021/08/12,20:00,0.583,0.864,0.557,1.054,0.746,0.357,0.619,0.584,�k�k��,7.6,�L
2021/08/12,20:10,0.583,0.866,0.557,1.059,0.746,0.358,0.619,0.583,�k�k��,7.4,�L
2021/08/12,20:20,0.585,0.866,0.559,1.055,0.746,0.358,0.619,0.582,�k�k��,8.5,�L
2021/08/12,20:30,0.583,0.864,0.558,1.056,0.747,0.358,0.619,0.582,�k�k��,7.8,��
2021/08/12,20:40,0.583,0.866,0.558,1.055,0.747,0.358,0.620,0.582,�k�k��,7.8,��
2021/08/12,20:50,0.583,0.864,0.558,1.055,0.746,0.359,0.621,0.583,�k�k��,7.5,��
2021/08/12,21:00,0.582,0.868,0.557,1.057,0.746,0.358,0.621,0.582,�k�k��,7.5,��
2021/08/12,21:10,0.585,0.865,0.558,1.057,0.745,0.358,0.619,0.583,�k�k��,7.7,�L
2021/08/12,21:20,0.583,0.866,0.558,1.058,0.748,0.358,0.619,0.583,�k�k��,7.4,�L
2021/08/12,21:30,0.584,0.867,0.558,1.057,0.748,0.358,0.619,0.583,�k�k��,8.5,�L
2021/08/12,21:40,0.585,0.864,0.557,1.058,0.748,0.356,0.619,0.584,�k�k��,8.3,�L
2021/08/12,21:50,0.581,0.865,0.558,1.056,0.744,0.358,0.620,0.582,�k�k��,8.3,�L
2021/08/12,22:00,0.583,0.862,0.558,1.053,0.743,0.359,0.621,0.581,�k�k��,8.4,�L
2021/08/12,22:10,0.581,0.862,0.557,1.056,0.742,0.360,0.618,0.580,�k�k��,8.2,�L
2021/08/12,22:20,0.580,0.860,0.556,1.055,0.741,0.359,0.617,0.581,�k�k��,8.8,�L
2021/08/12,22:30,0.581,0.859,0.557,1.052,0.739,0.360,0.620,0.580,�k�k��,7.4,�L
2021/08/12,22:40,0.581,0.859,0.554,1.053,0.740,0.359,0.619,0.581,�k�k��,7.8,�L
2021/08/12,22:50,0.581,0.860,0.555,1.052,0.739,0.357,0.617,0.579,�k�k��,7.8,�L
2021/08/12,23:00,0.581,0.858,0.554,1.050,0.737,0.358,0.619,0.578,�k�k��,7.7,�L
2021/08/12,23:10,0.580,0.859,0.554,1.052,0.742,0.357,0.616,0.579,�k�k��,7.7,�L
2021/08/12,23:20,0.579,0.858,0.553,1.051,0.738,0.358,0.617,0.582,�k�k��,8.3,�L
2021/08/12,23:30,0.580,0.857,0.554,1.050,0.739,0.358,0.616,0.580,�k�k��,7.9,�L
2021/08/12,23:40,0.580,0.858,0.556,1.046,0.739,0.359,0.618,0.579,�k�k��,7.7,�L
2021/08/12,23:50,0.581,0.854,0.554,1.049,0.739,0.358,0.617,0.580,�k�k��,7.0,�L
